Location: Unspecified
(0.0000°N, 0.0000°E)
Time: 16:30:12
(UTC+00:00)

deb Explorer IX - Visible Passes

Search period start: 22 June 2017 00:00
Search period end: 02 July 2017 00:00
Orbit: 538 x 1127 km, 38.8° (Epoch: 21 June)

Date Brightness Start Highest point End Pass type
(mag) Time Alt. Az. Time Alt. Az. Time Alt. Az.
22 Jun ? 05:01:09 10° NNW 05:06:11 52° NE 05:12:10 10° ESE visible
23 Jun ? 04:41:34 10° NW 04:46:28 55° NE 04:52:20 10° ESE visible
24 Jun ? 04:22:02 10° NW 04:26:47 59° NE 04:32:30 10° ESE visible
25 Jun ? 04:05:41 43° NNW 04:07:06 63° NE 04:12:40 10° ESE visible
26 Jun ? 03:49:05 42° ESE 03:49:05 42° ESE 03:52:51 10° SE visible
26 Jun ? 05:31:27 10° WSW 05:34:55 17° SW 05:38:45 10° S visible
27 Jun ? 03:32:11 14° SE 03:32:11 14° SE 03:33:02 10° SE visible
27 Jun ? 05:13:49 14° SW 05:15:15 16° SW 05:18:34 10° S visible
28 Jun ? 04:56:35 13° SSW 04:56:35 13° SSW 04:58:20 10° S visible
